Quincy, IL

1:49 PM CST on November 21, 2017 (GMT -0600)
Quincy Regional-Baldwin

Weather History for KUIN - September, 2013

Change the Weather History Date:

Sunday, September 15, 2013

  Actual Average Record
Temperature  
Mean Temperature 69 °F 67 °F  
Max Temperature 80 °F 78 °F 100 °F (1939)
Min Temperature 58 °F 56 °F 37 °F (2007)
Degree Days  
Heating Degree Days 0 2  
Month to date heating degree days 5 18  
Since 1 July heating degree days 11 23  
Cooling Degree Days 4 4  
Month to date cooling degree days 147 84  
Year to date cooling degree days 1153 1037  
Growing Degree Days 18 (Base 50)    
Moisture  
Dew Point 56 °F    
Average Humidity 65    
Maximum Humidity 87    
Minimum Humidity 43    
Precipitation  
Precipitation 0.04 in 0.11 in 2.83 in (1915)
Month to date precipitation 0.85 1.65  
Year to date precipitation 28.95 27.40  
Sea Level Pressure  
Sea Level Pressure 30.05 in    
Wind  
Wind Speed 10 mph (NW)    
Max Wind Speed 17 mph    
Max Gust Speed 25 mph    
Visibility 10 miles    
Events Rain    
T = Trace of Precipitation, MM = Missing Value Source: NWS Daily Summary

Daily Weather History Graph

Daily Weather History Graph

Search for Another Location

Airport or City:

Trip Planner

Search our weather history database for the weather conditions in past years. The results will help you decide how hot, cold, wet, or windy it might be!

Date:

Astronomy

Sep. 15, 2013 Rise Set
Actual Time 6:45 AM CDT 7:13 PM CDT
Civil Twilight 6:18 AM CDT 7:40 PM CDT
Nautical Twilight 5:46 AM CDT 8:11 PM CDT
Astronomical Twilight 5:14 AM CDT 8:44 PM CDT
Moon 4:40 PM CDT (9/15) 2:24 AM CDT (9/15)
Length of Visible Light 13h 21m
Length of Day
12h 27m
Waxing Gibbous, 82% of the Moon is Illuminated
Sep 15
Waxing Gibbous
Sep 19
Full
Sep 26
Last Quarter
Oct 4
New
Oct 11
First Quarter

Hourly Weather History & Observations

Time (CDT) Temp. Dew Point Humidity Pressure Visibility Wind Dir Wind Speed Gust Speed Precip Events Conditions
12:54 AM 59.0 °F 43.0 °F 55% 30.00 in 10.0 mi SSE 8.1 mph - N/A   Clear
1:54 AM 59.0 °F 44.1 °F 58% 30.00 in 10.0 mi South 6.9 mph - N/A   Clear
2:54 AM 60.1 °F 44.1 °F 55% 29.99 in 10.0 mi South 6.9 mph - N/A   Clear
3:54 AM 60.1 °F 45.0 °F 57% 29.98 in 10.0 mi South 8.1 mph - N/A   Clear
4:54 AM 60.1 °F 46.0 °F 60% 29.98 in 10.0 mi South 8.1 mph - N/A   Mostly Cloudy
5:54 AM 60.1 °F 48.0 °F 64% 29.99 in 10.0 mi South 9.2 mph - N/A   Mostly Cloudy
6:54 AM 59.0 °F 48.0 °F 67% 29.99 in 10.0 mi SSW 8.1 mph - N/A   Clear
7:54 AM 61.0 °F 48.9 °F 64% 30.00 in 10.0 mi South 9.2 mph - N/A   Clear
8:54 AM 64.9 °F 48.9 °F 56% 29.99 in 10.0 mi SSW 15.0 mph - N/A   Mostly Cloudy
9:54 AM 69.1 °F 50.0 °F 51% 30.00 in 10.0 mi SSW 12.7 mph - N/A   Overcast
10:54 AM 70.0 °F 51.1 °F 51% 29.99 in 10.0 mi SSW 11.5 mph - N/A   Mostly Cloudy
11:54 AM 75.9 °F 53.1 °F 45% 29.99 in 10.0 mi SSW 13.8 mph - N/A   Clear
12:54 PM 77.0 °F 54.0 °F 45% 29.99 in 10.0 mi SSW 11.5 mph - N/A   Mostly Cloudy
1:54 PM 75.9 °F 57.9 °F 54% 29.98 in 8.0 mi WNW 6.9 mph - 0.00 in Rain Light Rain
2:54 PM 73.0 °F 64.0 °F 73% 29.98 in 10.0 mi West 6.9 mph - 0.01 in Rain Light Rain
3:54 PM 71.1 °F 63.0 °F 75% 30.00 in 10.0 mi WNW 8.1 mph - 0.00 in   Overcast
4:30 PM 71.6 °F 62.6 °F 73% 30.02 in 10.0 mi WNW 10.4 mph - N/A   Overcast
4:54 PM 71.1 °F 62.1 °F 73% 30.01 in 10.0 mi NW 10.4 mph - N/A   Overcast
5:54 PM 69.1 °F 62.1 °F 78% 30.03 in 10.0 mi NW 9.2 mph - N/A   Overcast
6:43 PM 66.2 °F 62.6 °F 88% 30.06 in 9.0 mi NNW 6.9 mph - N/A   Overcast
6:54 PM 66.9 °F 63.0 °F 87% 30.06 in 8.0 mi NW 6.9 mph - N/A   Overcast
7:31 PM 66.2 °F 64.4 °F 94% 30.07 in 8.0 mi NNW 5.8 mph - 0.03 in   Overcast
7:54 PM 66.0 °F 63.0 °F 90% 30.06 in 7.0 mi NNW 5.8 mph - 0.03 in   Overcast
8:20 PM 64.4 °F 62.6 °F 94% 30.10 in 8.0 mi North 13.8 mph 20.7 mph N/A   Overcast
8:49 PM 62.6 °F 60.8 °F 94% 30.11 in 10.0 mi North 10.4 mph - 0.00 in Rain Light Rain
8:54 PM 63.0 °F 60.1 °F 90% 30.10 in 10.0 mi NNE 10.4 mph - 0.00 in Rain Light Rain
9:01 PM 62.6 °F 60.8 °F 94% 30.12 in 10.0 mi North 11.5 mph - 0.00 in Rain Light Rain
9:12 PM 62.6 °F 59.0 °F 88% 30.12 in 10.0 mi NNE 13.8 mph - 0.00 in   Overcast
9:54 PM 62.1 °F 59.0 °F 90% 30.13 in 10.0 mi NNE 15.0 mph - 0.00 in Rain Light Rain
10:12 PM 60.8 °F 57.2 °F 88% 30.14 in 10.0 mi NNE 13.8 mph - 0.00 in Rain Light Rain
10:37 PM 60.8 °F 57.2 °F 88% 30.15 in 10.0 mi NNE 12.7 mph - 0.00 in   Overcast
10:54 PM 61.0 °F 57.0 °F 87% 30.15 in 10.0 mi NNE 15.0 mph 20.7 mph 0.00 in   Overcast
11:22 PM 60.8 °F 55.4 °F 82% 30.17 in 10.0 mi NNE 11.5 mph - N/A   Overcast
11:45 PM 60.8 °F 55.4 °F 82% 30.17 in 10.0 mi NNE 12.7 mph - N/A   Overcast
11:54 PM 61.0 °F 55.9 °F 83% 30.15 in 10.0 mi NNE 16.1 mph - N/A   Overcast